Simultaneous Nadir Overpasses (SNOs) Predictions

Prediction of SNOs between NOAA-19 and METOP-C Satellite Orbit:

Table of predicted SNOs for the next 14.0 days since TLE Epoch: 4/24/2020
Index Date (NOAA-19) Time (NOAA-19) Lat,Lon (NOAA-19) SZA (NOAA-19 ) Date (METOP-C) Time (METOP-C) Lat,Lon (METOP-C) SZA (METOP-C ) Distance(km) Time Diff (sec)
1 05/03/2020 09:03:28 -79.97,-114.62 115.17 05/03/2020 09:04:43 -79.91,-114.42 115.18 7.13 75
2 05/03/2020 09:54:32 79.94, 53.03 64.82 05/03/2020 09:55:23 79.93, 53.08 64.84 0.99 51
3 05/03/2020 10:45:27 -79.93,-139.61 115.19 05/03/2020 10:46:04 -79.93,-139.58 115.17 0.76 37
4 05/03/2020 11:36:32 79.92, 27.73 64.80 05/03/2020 11:36:45 79.92, 27.62 64.80 2.14 13
5 05/03/2020 12:27:27 -79.91,-164.92 115.21 05/03/2020 12:27:26 -79.92,-165.04 115.21 2.38 1
6 05/03/2020 13:18:33 79.93, 2.12 64.78 05/03/2020 13:18:07 79.91, 2.16 64.76 2.60 26
7 05/03/2020 14:09:28 -79.92, 169.47 115.23 05/03/2020 14:08:48 -79.91, 169.51 115.25 1.78 40
8 05/03/2020 15:00:33 79.91, -23.19 64.76 05/03/2020 14:59:29 79.89, -23.30 64.72 2.97 64




NCC Satellite Simultaneous Nadir Overpasses (SNOs) Prediction Service
